Weather History for North Padre Island, TX

Change the Weather History Date:

Wednesday, October 24, 2012

  Actual Average Record
Temperature  
Mean Temperature 81 °F -  
Max Temperature 82 °F - - ()
Min Temperature 80 °F - - ()
Cooling Degree Days 16    
Growing Degree Days 31 (Base 50)    
Moisture  
Dew Point 69 °F    
Average Humidity 67    
Maximum Humidity 74    
Minimum Humidity 61    
Precipitation  
Precipitation 0.00 in - - ()
Sea Level Pressure  
Sea Level Pressure 29.92 in    
Wind  
Wind Speed 14 mph (ESE)    
Max Wind Speed 18 mph    
Max Gust Speed -    
Visibility 10 miles    
Events      
T = Trace of Precipitation, MM = Missing Value Source: NWS Daily Summary

Daily Weather History Graph

Daily Weather History Graph

Search for Another Location

Airport:

Trip Planner

Search our weather history database for the weather conditions in past years. The results will help you decide how hot, cold, wet, or windy it might be!

Date:

Astronomy

Oct. 24, 2012 Rise Set
Actual Time 7:32 AM CDT 6:50 PM CDT
Civil Twilight 7:09 AM CDT 7:14 PM CDT
Nautical Twilight 6:41 AM CDT 7:41 PM CDT
Astronomical Twilight 6:14 AM CDT 8:08 PM CDT
Moon 3:44 PM CDT (10/24) 2:55 AM CDT (10/24)
Length of Visible Light 12h 05m
Length of Day
11h 17m
Waxing Gibbous, 76% of the Moon is Illuminated
Oct 24
Waxing Gibbous
Oct 29
Full
Nov 6
Last Quarter
Nov 13
New
Nov 20
First Quarter

Hourly Weather History & Observations

Time (CDT) Temp. Heat Index Dew Point Humidity Pressure Visibility Wind Dir Wind Speed Gust Speed Precip Events Conditions
12:15 AM 80.6 °F 83.2 °F 68.0 °F 65% 29.95 in 10.0 mi SE 16.1 mph - N/A   Clear
12:35 AM 80.6 °F 83.2 °F 68.0 °F 65% 29.94 in 10.0 mi ESE 16.1 mph - N/A   Partly Cloudy
12:55 AM 80.6 °F 82.7 °F 66.2 °F 61% 29.94 in 10.0 mi ESE 16.1 mph - N/A   Clear
1:15 AM 80.6 °F 83.2 °F 68.0 °F 65% 29.94 in 10.0 mi ESE 16.1 mph - N/A   Clear
1:35 AM 80.6 °F 83.9 °F 69.8 °F 70% 29.94 in 10.0 mi ESE 15.0 mph - N/A   Partly Cloudy
1:55 AM 80.6 °F 83.2 °F 68.0 °F 65% 29.93 in 10.0 mi ESE 13.8 mph - N/A   Partly Cloudy
2:15 AM 80.6 °F 83.9 °F 69.8 °F 70% 29.93 in 10.0 mi SE 16.1 mph - N/A   Partly Cloudy
2:35 AM 80.6 °F 83.2 °F 68.0 °F 65% 29.93 in 10.0 mi ESE 16.1 mph - N/A   Partly Cloudy
2:55 AM 80.6 °F 83.2 °F 68.0 °F 65% 29.92 in 10.0 mi SE 17.3 mph - N/A   Clear
3:15 AM 80.6 °F 83.2 °F 68.0 °F 65% 29.92 in 10.0 mi SE 17.3 mph - N/A   Clear
3:35 AM 80.6 °F 83.2 °F 68.0 °F 65% 29.92 in 10.0 mi SE 17.3 mph - N/A   Clear
3:55 AM 80.6 °F 83.2 °F 68.0 °F 65% 29.92 in 10.0 mi SE 13.8 mph - N/A   Clear
4:15 AM 80.6 °F 83.2 °F 68.0 °F 65% 29.91 in 10.0 mi ESE 16.1 mph - N/A   Clear
4:35 AM 80.6 °F 82.7 °F 66.2 °F 61% 29.92 in 10.0 mi SE 15.0 mph - N/A   Clear
4:55 AM 80.6 °F 83.2 °F 68.0 °F 65% 29.91 in 10.0 mi SE 12.7 mph - N/A   Clear
5:15 AM 80.6 °F 83.2 °F 68.0 °F 65% 29.92 in 10.0 mi SE 15.0 mph - N/A   Clear
5:35 AM 80.6 °F 83.2 °F 68.0 °F 65% 29.92 in 10.0 mi SE 15.0 mph - N/A   Clear
5:55 AM 80.6 °F 83.2 °F 68.0 °F 65% 29.93 in 10.0 mi SE 15.0 mph - N/A   Clear
6:15 AM 80.6 °F 83.2 °F 68.0 °F 65% 29.93 in 10.0 mi ESE 16.1 mph - N/A   Partly Cloudy
6:35 AM 80.6 °F 83.2 °F 68.0 °F 65% 29.93 in 10.0 mi SE 15.0 mph - N/A   Partly Cloudy
7:15 AM 80.6 °F 83.2 °F 68.0 °F 65% 29.94 in 10.0 mi SE 12.7 mph - N/A   Scattered Clouds
7:35 AM 80.6 °F 83.2 °F 68.0 °F 65% 29.94 in 10.0 mi SE 13.8 mph - N/A   Scattered Clouds
8:15 AM 80.6 °F 83.2 °F 68.0 °F 65% 29.95 in 10.0 mi SE 13.8 mph - N/A   Clear
8:35 AM 80.6 °F 83.2 °F 68.0 °F 65% 29.95 in 10.0 mi SSE 11.5 mph - N/A   Partly Cloudy
8:55 AM 80.6 °F 83.2 °F 68.0 °F 65% 29.96 in 10.0 mi SE 12.7 mph - N/A   Clear
9:15 AM 80.6 °F 83.2 °F 68.0 °F 65% 29.96 in 10.0 mi SE 12.7 mph - N/A   Partly Cloudy
9:35 AM 80.6 °F 83.2 °F 68.0 °F 65% 29.96 in 10.0 mi SE 10.4 mph - N/A   Scattered Clouds
9:55 AM 80.6 °F 83.2 °F 68.0 °F 65% 29.96 in 10.0 mi SE 10.4 mph - N/A   Partly Cloudy
10:15 AM 80.6 °F 83.2 °F 68.0 °F 65% 29.97 in 10.0 mi ESE 11.5 mph - N/A   Partly Cloudy
10:35 AM 80.6 °F 83.2 °F 68.0 °F 65% 29.97 in 10.0 mi SE 11.5 mph - N/A   Partly Cloudy
10:55 AM 80.6 °F 83.2 °F 68.0 °F 65% 29.97 in 10.0 mi SE 10.4 mph - N/A   Clear
11:15 AM 80.6 °F 83.2 °F 68.0 °F 65% 29.97 in 10.0 mi SE 10.4 mph - N/A   Clear
11:35 AM 82.4 °F 85.4 °F 68.0 °F 62% 29.97 in 10.0 mi ESE 10.4 mph - N/A   Clear
11:55 AM 82.4 °F 86.3 °F 69.8 °F 66% 29.97 in 10.0 mi ESE 12.7 mph - N/A   Partly Cloudy
12:15 PM 80.6 °F 83.9 °F 69.8 °F 70% 29.96 in 10.0 mi ESE 11.5 mph - N/A   Mostly Cloudy
12:35 PM 82.4 °F 86.3 °F 69.8 °F 66% 29.95 in 10.0 mi ESE 10.4 mph - N/A   Partly Cloudy
12:55 PM 82.4 °F 85.4 °F 68.0 °F 62% 29.94 in 10.0 mi SE 12.7 mph - N/A   Clear
1:15 PM 82.4 °F 86.3 °F 69.8 °F 66% 29.94 in 10.0 mi ESE 11.5 mph - N/A   Clear
1:35 PM 82.4 °F 86.3 °F 69.8 °F 66% 29.93 in 10.0 mi ESE 11.5 mph - N/A   Clear
1:55 PM 82.4 °F 86.3 °F 69.8 °F 66% 29.92 in 10.0 mi ESE 11.5 mph - N/A   Clear
2:15 PM 82.4 °F 86.3 °F 69.8 °F 66% 29.91 in 10.0 mi ESE 9.2 mph - N/A   Clear
2:35 PM 82.4 °F 85.4 °F 68.0 °F 62% 29.90 in 10.0 mi SE 9.2 mph - N/A   Clear
2:55 PM 82.4 °F 85.4 °F 68.0 °F 62% 29.90 in 10.0 mi ESE 9.2 mph - N/A   Clear
3:15 PM 82.4 °F 86.3 °F 69.8 °F 66% 29.89 in 10.0 mi East 10.4 mph - N/A   Clear
3:35 PM 80.6 °F 83.9 °F 69.8 °F 70% 29.89 in 10.0 mi ESE 11.5 mph - N/A   Clear
3:55 PM 80.6 °F 83.9 °F 69.8 °F 70% 29.89 in 10.0 mi East 12.7 mph - N/A   Clear
4:15 PM 80.6 °F 83.9 °F 69.8 °F 70% 29.88 in 10.0 mi ESE 11.5 mph - N/A   Clear
4:35 PM 80.6 °F 83.9 °F 69.8 °F 70% 29.88 in 10.0 mi East 11.5 mph - N/A   Clear
4:55 PM 80.6 °F 84.6 °F 71.6 °F 74% 29.87 in 10.0 mi East 10.4 mph - N/A   Partly Cloudy
5:15 PM 80.6 °F 84.6 °F 71.6 °F 74% 29.87 in 10.0 mi East 12.7 mph - N/A   Partly Cloudy
5:35 PM 80.6 °F 84.6 °F 71.6 °F 74% 29.87 in 10.0 mi East 12.7 mph - N/A   Partly Cloudy
5:55 PM 80.6 °F 84.6 °F 71.6 °F 74% 29.87 in 10.0 mi ESE 13.8 mph - N/A   Mostly Cloudy
6:15 PM 80.6 °F 84.6 °F 71.6 °F 74% 29.87 in 9.0 mi ESE 15.0 mph - N/A   Partly Cloudy
6:35 PM 80.6 °F 83.9 °F 69.8 °F 70% 29.87 in 10.0 mi East 15.0 mph - N/A   Partly Cloudy
6:55 PM 80.6 °F 83.9 °F 69.8 °F 70% 29.88 in 10.0 mi East 15.0 mph - N/A   Mostly Cloudy
7:35 PM 80.6 °F 83.9 °F 69.8 °F 70% 29.88 in 10.0 mi East 13.8 mph - N/A   Partly Cloudy
7:55 PM 80.6 °F 83.9 °F 69.8 °F 70% 29.88 in 10.0 mi East 16.1 mph - N/A   Clear
8:15 PM 80.6 °F 83.9 °F 69.8 °F 70% 29.89 in 10.0 mi East 13.8 mph - N/A   Clear
8:35 PM 80.6 °F 83.9 °F 69.8 °F 70% 29.89 in 10.0 mi East 15.0 mph - N/A   Scattered Clouds
8:55 PM 80.6 °F 83.9 °F 69.8 °F 70% 29.90 in 10.0 mi East 16.1 mph - N/A   Scattered Clouds
9:15 PM 80.6 °F 83.9 °F 69.8 °F 70% 29.89 in 10.0 mi East 15.0 mph - N/A   Partly Cloudy
9:35 PM 80.6 °F 83.9 °F 69.8 °F 70% 29.90 in 10.0 mi East 15.0 mph - N/A   Scattered Clouds
9:55 PM 80.6 °F 83.9 °F 69.8 °F 70% 29.90 in 10.0 mi ESE 15.0 mph - N/A   Scattered Clouds
10:35 PM 80.6 °F 83.9 °F 69.8 °F 70% 29.90 in 10.0 mi ESE 15.0 mph - N/A   Partly Cloudy
10:55 PM 80.6 °F 83.9 °F 69.8 °F 70% 29.90 in 10.0 mi ESE 17.3 mph - N/A   Partly Cloudy
11:15 PM 80.6 °F 83.9 °F 69.8 °F 70% 29.89 in 10.0 mi ESE 17.3 mph - N/A   Clear
11:55 PM 80.6 °F 83.2 °F 68.0 °F 65% 29.88 in 10.0 mi ESE 18.4 mph - N/A   Clear